Location: Newark
(36.1358°N, 115.1208°W)
Time: 09:44:32
(UTC+00:00)

Vanguard 1 - All Passes

Search period start: 19 February 2020 00:00
Search period end: 29 February 2020 00:00
Orbit: 650 x 3833 km, 34.2° (Epoch: 18 February)

Date Brightness Start Highest point End Pass type
(mag) Time Alt. Az. Time Alt. Az. Time Alt. Az.
19 Feb - 13:44:11 10° SSW 14:03:16 33° SE 14:17:56 10° E visible
19 Feb - 16:06:46 10° SW 16:28:06 63° SSE 16:40:48 10° E daylight
19 Feb - 18:34:25 10° W 18:52:00 82° S 19:01:07 10° E daylight
19 Feb - 21:02:10 10° W 21:13:55 63° SSW 21:20:17 10° ESE daylight
19 Feb - 23:28:50 10° W 23:33:08 16° SW 23:36:31 10° S daylight
20 Feb - 11:49:58 10° SSE 11:59:55 14° SE 12:09:19 10° ESE visible
20 Feb - 14:03:50 10° SSW 14:24:30 41° SSE 14:39:45 10° E daylight
20 Feb - 16:27:59 10° WSW 16:49:27 70° SSE 17:01:51 10° E daylight
20 Feb - 18:56:14 10° W 19:13:14 82° S 19:22:00 10° E daylight
20 Feb - 21:23:49 10° W 21:34:43 51° SSW 21:40:51 10° SE daylight
21 Feb - 12:06:13 10° S 12:20:58 21° SE 12:34:26 10° E visible
21 Feb - 14:23:58 10° SW 14:45:45 50° SSE 15:01:16 10° E daylight
21 Feb - 16:49:28 10° WSW 17:10:48 76° SSE 17:22:51 10° E daylight
21 Feb - 19:18:04 10° W 19:34:26 80° S 19:42:52 10° ESE daylight
21 Feb - 21:45:31 10° W 21:55:23 40° SW 22:01:13 10° SE daylight
22 Feb - 12:24:22 10° S 12:42:00 28° SE 12:57:39 10° E visible
22 Feb - 14:44:31 10° SW 15:07:04 58° SSE 15:22:35 10° E daylight
22 Feb - 17:11:08 10° WSW 17:32:12 81° S 17:43:51 10° E daylight
22 Feb - 19:39:53 10° W 19:55:34 74° SSW 20:03:40 10° ESE daylight
22 Feb - 22:07:22 10° W 22:15:52 29° SW 22:21:16 10° SSE daylight
23 Feb - 12:43:27 10° SSW 13:03:03 36° SE 13:20:01 10° E visible
23 Feb - 15:05:25 10° SW 15:28:26 66° SSE 15:43:46 10° E daylight
23 Feb - 17:32:57 10° W 17:53:35 83° S 18:04:49 10° E daylight
23 Feb - 20:01:40 10° W 20:16:34 66° SSW 20:24:23 10° ESE daylight
23 Feb - 22:29:36 10° W 22:36:11 20° SW 22:40:51 10° S daylight
24 Feb - 10:49:33 10° SSE 11:00:00 15° SE 11:10:30 10° ESE visible
24 Feb - 13:03:09 10° SSW 13:24:10 44° SE 13:41:53 10° E visible
24 Feb - 15:26:37 10° WSW 15:49:52 73° SSE 16:04:53 10° E daylight
24 Feb - 17:54:50 10° W 18:14:57 83° S 18:25:46 10° E daylight
24 Feb - 20:23:26 10° W 20:37:25 55° SSW 20:44:57 10° SE daylight
24 Feb - 22:52:49 10° WSW 22:56:24 13° SW 22:59:22 10° SSW daylight
25 Feb - 11:06:09 10° S 11:20:48 22° SE 11:35:31 10° E visible
25 Feb - 13:23:18 10° SW 13:45:21 52° SSE 14:03:27 10° E visible
25 Feb - 15:48:04 10° WSW 16:11:20 78° SSE 16:26:00 10° E daylight
25 Feb - 18:16:43 10° W 18:36:17 81° S 18:46:40 10° ESE daylight
25 Feb - 20:45:14 10° W 20:58:06 44° SW 21:05:19 10° SE daylight
26 Feb - 11:24:27 10° S 11:41:37 29° SE 11:58:47 10° E visible
26 Feb - 13:43:50 10° SW 14:06:39 60° SSE 14:24:51 10° E visible
26 Feb - 16:09:42 10° WSW 16:32:52 82° S 16:47:04 10° E daylight
26 Feb - 18:38:36 10° W 18:57:30 76° SSW 19:07:32 10° ESE daylight
26 Feb - 21:07:12 10° W 21:18:36 34° SW 21:25:24 10° SSE daylight
27 Feb - 11:43:35 10° SSW 12:02:29 37° SE 12:21:14 10° E visible
27 Feb - 14:04:42 10° SW 14:28:02 68° SSE 14:46:08 10° E daylight
27 Feb - 16:31:28 10° W 16:54:24 84° S 17:08:07 10° E daylight
27 Feb - 19:00:28 10° W 19:18:36 68° SSW 19:28:15 10° ESE daylight
27 Feb - 21:29:28 10° W 21:38:55 25° SW 21:45:05 10° S daylight
28 Feb - 09:50:23 10° SSE 10:00:02 15° SE 10:10:24 10° E visible
28 Feb - 12:03:19 10° SSW 12:23:26 45° SE 12:43:11 10° E visible
28 Feb - 14:25:49 10° WSW 14:49:32 75° SSE 15:07:22 10° E daylight
28 Feb - 16:53:19 10° W 17:15:55 84° S 17:29:09 10° E daylight
28 Feb - 19:22:19 10° WNW 19:39:32 58° SSW 19:48:50 10° SE daylight
28 Feb - 21:52:24 10° W 21:59:05 17° SW 22:04:03 10° SSW daylight
